{"data":{"norad_id":36581,"epoch":"2026-09-19T23:55:33.805056Z","epoch_age_seconds":57803,"freshness":"FRESH","line1":"1 36581U 10021A   26262.99691904  .00000134  00000+0  00000+0 0  9998","line2":"2 36581   1.7074  82.2378 0003451  74.7610 224.3224  1.00274886 59810","mean_motion":1.00274886,"eccentricity":0.0003451,"inclination_deg":1.7074,"raan_deg":82.2378,"arg_perigee_deg":74.761,"mean_anomaly_deg":224.3224,"bstar":0,"rev_number":5981,"period_min":1436.0524927448,"perigee_km":35771.17491172,"apogee_km":35800.276409729,"semimajor_km":42163.862660724,"source":"CELESTRAK","updated_at":"2026-09-20T09:00:35.639233Z"}}